CW9792 Weather Reports


Display with metric or nautical units.
time (UTC)temp
F
wind
direction
speed
MPH
gust
MPH
rain 1hr
in
rain 24hr
in
rain mn
in
humidity
%
barometer
mb
20260503184619 61 197 0.0 0.0 0.00 0.00 0.00 25 1019.0
20260503184058 61 246 0.0 0.0 0.00 0.00 0.00 24 1019.0
20260503183556 61 225 0.0 0.0 0.00 0.00 0.00 27 1019.1
20260503183101 60 254 0.0 0.0 0.00 0.00 0.00 26 1019.3
20260503182555 60 253 0.0 0.0 0.00 0.00 0.00 26 1019.4
20260503182055 60 237 0.0 0.0 0.00 0.00 0.00 26 1019.3
20260503181558 59 248 0.0 0.0 0.00 0.00 0.00 26 1019.4
20260503181055 60 211 0.0 0.0 0.00 0.00 0.00 26 1019.5
20260503180553 60 240 0.0 0.0 0.00 0.00 0.00 26 1019.7
20260503180055 60 199 0.0 1.0 0.00 0.00 0.00 27 1019.7
20260503175552 59 138 0.0 0.0 0.00 0.00 0.00 28 1019.8
20260503175050 59 232 0.0 0.0 0.00 0.00 0.00 25 1019.9
20260503174551 59 250 0.0 0.0 0.00 0.00 0.00 25 1020.0
20260503174050 59 217 0.0 0.0 0.00 0.00 0.00 26 1020.1
20260503173553 59 233 0.0 1.0 0.00 0.00 0.00 25 1020.0
20260503173049 59 202 0.0 1.0 0.00 0.00 0.00 26 1020.1
20260503172548 59 254 0.0 7.0 0.00 0.00 0.00 25 1020.1
20260503172050 60 184 0.0 7.0 0.00 0.00 0.00 27 1020.2
20260503171608 59 198 0.0 0.0 0.00 0.00 0.00 28 1020.4
20260503171048 58 202 0.0 0.0 0.00 0.00 0.00 26 1020.6
20260503170547 59 213 0.0 0.0 0.00 0.00 0.00 25 1020.6
20260503150535 55 190 0.0 0.0 0.00 0.00 0.00 31 1021.8
20260503131012 47 192 0.0 0.0 0.00 0.00 0.00 54 1021.7
20260503130510 47 173 0.0 0.0 0.00 0.00 0.00 54 1021.7
20260503110552 34 181 0.0 0.0 0.00 0.00 0.00 69 1020.9
20260503081541 35 342 0.0 0.0 0.00 0.00 0.00 66 1020.6
20260503081039 35 342 0.0 0.0 0.00 0.00 0.00 66 1020.5
20260503080541 35 342 0.0 0.0 0.00 0.00 0.00 66 1020.5
20260503072536 35 342 0.0 0.0 0.00 0.00 0.00 65 1020.2
20260503072037 35 342 0.0 0.0 0.00 0.00 0.00 65 1020.3
20260503071552 35 342 0.0 0.0 0.00 0.00 0.00 64 1020.3
20260503071033 36 342 0.0 0.0 0.00 0.00 0.00 64 1020.2
20260503070532 36 342 0.0 0.0 0.00 0.00 0.00 64 1020.1
20260503055023 39 342 0.0 0.0 0.00 0.00 0.00 63 1020.5
20260503054528 39 342 0.0 0.0 0.00 0.00 0.00 63 1020.5
20260503054023 38 342 0.0 0.0 0.00 0.00 0.00 63 1020.5
20260503053522 39 342 0.0 0.0 0.00 0.00 0.00 63 1020.3
20260503053033 39 342 0.0 1.0 0.00 0.00 0.00 63 1020.3
20260503052521 39 342 0.0 1.0 0.00 0.00 0.00 63 1020.4
20260503052020 39 342 0.0 0.0 0.00 0.00 0.00 63 1020.4
20260503051522 40 342 0.0 0.0 0.00 0.00 0.00 63 1020.4
20260503051018 40 342 0.0 0.0 0.00 0.00 0.00 63 1020.4
20260503050520 40 342 0.0 0.0 0.00 0.00 0.00 63 1020.4
20260503050018 40 342 0.0 0.0 0.00 0.00 0.00 63 1020.4
20260503045517 40 342 0.0 0.0 0.00 0.00 0.00 63 1020.4
20260503045017 40 342 0.0 0.0 0.00 0.00 0.00 62 1020.4
20260503044533 40 342 0.0 0.0 0.00 0.00 0.00 62 1020.4
20260503044014 41 342 0.0 0.0 0.00 0.00 0.00 62 1020.3
20260503043513 41 342 0.0 0.0 0.00 0.00 0.00 62 1020.3
20260503043027 41 342 0.0 0.0 0.00 0.00 0.00 62 1020.2
20260503042513 41 342 0.0 0.0 0.00 0.00 0.00 62 1020.2
20260503042012 41 342 0.0 0.0 0.00 0.00 0.00 62 1020.2
20260503041511 42 342 0.0 0.0 0.00 0.00 0.00 62 1020.1
20260503041011 42 342 0.0 0.0 0.00 0.00 0.00 62 1020.1
20260503040509 42 342 0.0 0.0 0.00 0.00 0.00 62 1020.1
20260503040008 42 342 0.0 0.0 0.00 0.00 0.00 62 1020.1
20260503035508 42 342 0.0 0.0 0.00 0.00 0.00 61 1020.1
20260503035009 42 342 0.0 0.0 0.00 0.00 0.00 61 1020.0
20260503034507 43 342 0.0 0.0 0.00 0.00 0.00 60 1020.0
20260503034006 43 342 0.0 0.0 0.00 0.00 0.00 60 1020.0
20260503033510 43 342 0.0 0.0 0.00 0.00 0.00 60 1019.9
20260503033007 43 342 0.0 0.0 0.00 0.00 0.00 60 1020.0
20260503032506 44 342 0.0 0.0 0.00 0.00 0.00 60 1019.9
20260503032008 44 342 0.0 0.0 0.00 0.00 0.00 60 1019.9
20260503031505 44 342 0.0 0.0 0.00 0.00 0.00 59 1019.8
20260503031005 44 342 0.0 0.0 0.00 0.00 0.00 59 1019.8
20260503030504 44 342 0.0 0.0 0.00 0.00 0.00 59 1019.8
20260503030004 44 342 0.0 0.0 0.00 0.00 0.00 59 1019.7
20260503025503 45 342 0.0 0.0 0.00 0.00 0.00 59 1019.7
20260503025004 45 342 0.0 0.0 0.00 0.00 0.00 59 1019.6
20260503024502 45 342 0.0 0.0 0.00 0.00 0.00 59 1019.6
20260503024004 45 342 0.0 0.0 0.00 0.00 0.00 59 1019.6
20260503023503 45 342 0.0 0.0 0.00 0.00 0.00 59 1019.5
20260503023001 45 342 0.0 0.0 0.00 0.00 0.00 59 1019.5
20260503022501 45 342 0.0 0.0 0.00 0.00 0.00 59 1019.5
20260503022104 45 342 0.0 0.0 0.00 0.00 0.00 60 1019.4
20260503021603 45 342 0.0 0.0 0.00 0.00 0.00 60 1019.3
20260503021059 45 342 0.0 0.0 0.00 0.00 0.00 59 1019.3
20260503020559 45 342 0.0 0.0 0.00 0.00 0.00 59 1019.3
20260503020101 45 342 0.0 0.0 0.00 0.00 0.00 59 1019.2
20260503015557 45 342 0.0 0.0 0.00 0.00 0.00 59 1019.1
20260503015058 46 342 0.0 0.0 0.00 0.00 0.00 60 1019.1
20260503014558 46 342 0.0 0.0 0.00 0.00 0.00 60 1019.1
20260503014057 46 342 0.0 0.0 0.00 0.00 0.00 59 1019.0
20260503013559 46 342 0.0 0.0 0.00 0.00 0.00 59 1018.9
20260503013100 46 342 0.0 0.0 0.00 0.00 0.00 58 1018.8
20260503012557 47 342 0.0 0.0 0.00 0.00 0.00 58 1018.8
20260503012056 47 342 0.0 0.0 0.00 0.00 0.00 58 1018.7
20260503011620 47 342 0.0 0.0 0.00 0.00 0.00 57 1018.6
20260503011056 48 342 0.0 0.0 0.00 0.00 0.00 55 1018.6
20260503010556 48 342 0.0 0.0 0.00 0.00 0.00 55 1018.5
20260503010058 49 342 0.0 0.0 0.00 0.00 0.00 54 1018.5
20260503005559 49 342 0.0 0.0 0.00 0.00 0.00 54 1018.5
20260503005056 50 342 0.0 0.0 0.00 0.00 0.00 52 1018.4
20260503004555 50 342 0.0 0.0 0.00 0.00 0.00 50 1018.4
20260503004055 51 342 0.0 0.0 0.00 0.00 0.00 49 1018.4
20260503003555 51 342 0.0 0.0 0.00 0.00 0.00 50 1018.3
20260503003055 51 342 0.0 0.0 0.00 0.00 0.00 49 1018.4
20260503002555 52 342 0.0 0.0 0.00 0.00 0.00 48 1018.3
20260503002058 52 342 0.0 0.0 0.00 0.00 0.00 49 1018.3
20260503001555 52 342 0.0 0.0 0.00 0.00 0.00 47 1018.2
20260503001055 52 342 0.0 0.0 0.00 0.00 0.00 45 1018.1
20260503000555 52 342 0.0 0.0 0.00 0.00 0.00 45 1018.0
20260503000104 52 348 0.0 0.0 0.00 0.00 0.00 44 1017.9
20260502235557 52 348 0.0 0.0 0.00 0.00 0.00 44 1017.9
20260502235054 52 339 0.0 0.0 0.00 0.00 0.00 45 1017.9
20260502234602 53 355 0.0 0.0 0.00 0.00 0.00 45 1017.9
20260502234054 53 355 0.0 0.0 0.00 0.00 0.00 45 1017.8
20260502233554 53 351 0.0 0.0 0.00 0.00 0.00 45 1017.8
20260502233054 53 351 0.0 0.0 0.00 0.00 0.00 44 1017.7
20260502232553 53 355 0.0 0.0 0.00 0.00 0.00 44 1017.7
20260502232056 53 355 0.0 0.0 0.00 0.00 0.00 44 1017.7
20260502231553 53 5 0.0 0.0 0.00 0.00 0.00 43 1017.7
20260502231055 53 9 0.0 0.0 0.00 0.00 0.00 42 1017.7
20260502230553 53 15 0.0 0.0 0.00 0.00 0.00 42 1017.6
20260502230052 53 360 0.0 0.0 0.00 0.00 0.00 42 1017.7
20260502225554 53 9 0.0 0.0 0.00 0.00 0.00 43 1017.6
20260502225052 53 5 0.0 0.0 0.00 0.00 0.00 42 1017.7
20260502224552 53 355 0.0 0.0 0.00 0.00 0.00 43 1017.6
20260502224051 53 360 0.0 0.0 0.00 0.00 0.00 42 1017.6
20260502223551 53 360 0.0 0.0 0.00 0.00 0.00 41 1017.7
20260502223052 53 360 0.0 0.0 0.00 0.00 0.00 41 1017.7
20260502222552 54 355 0.0 0.0 0.00 0.00 0.00 40 1017.8
20260502222052 54 13 0.0 0.0 0.00 0.00 0.00 40 1017.7
20260502221607 54 13 0.0 0.0 0.00 0.00 0.00 39 1017.6
20260502221052 54 29 0.0 0.0 0.00 0.00 0.00 41 1017.6
20260502220550 54 15 0.0 0.0 0.00 0.00 0.00 39 1017.6
20260502220059 54 17 0.0 0.0 0.00 0.00 0.00 39 1017.5
20260502215550 54 10 0.0 0.0 0.00 0.00 0.00 40 1017.5
20260502215049 54 5 0.0 0.0 0.00 0.00 0.00 41 1017.4
20260502214550 54 23 0.0 0.0 0.00 0.00 0.00 40 1017.4
20260502214049 54 22 0.0 0.0 0.00 0.00 0.00 40 1017.4
20260502213553 54 29 0.0 0.0 0.00 0.00 0.00 41 1017.4
20260502213049 54 12 0.0 0.0 0.00 0.00 0.00 41 1017.4
20260502212549 54 28 0.0 0.0 0.00 0.00 0.00 40 1017.5
20260502212049 54 360 0.0 0.0 0.00 0.00 0.00 40 1017.4
20260502211549 54 348 0.0 0.0 0.00 0.00 0.00 41 1017.5
20260502211048 54 325 0.0 0.0 0.00 0.00 0.00 41 1017.4
20260502210547 54 11 0.0 0.0 0.00 0.00 0.00 40 1017.4
20260502210103 54 17 0.0 0.0 0.00 0.00 0.00 39 1017.4
20260502205547 55 351 0.0 0.0 0.00 0.00 0.00 37 1017.4
20260502205049 55 344 0.0 0.0 0.00 0.00 0.00 37 1017.4
20260502204549 56 347 0.0 0.0 0.00 0.00 0.00 38 1017.3
20260502204046 55 19 0.0 0.0 0.00 0.00 0.00 36 1017.5
20260502203546 55 9 0.0 0.0 0.00 0.00 0.00 38 1017.5
20260502203046 55 350 0.0 0.0 0.00 0.00 0.00 35 1017.6
20260502202545 55 9 0.0 0.0 0.00 0.00 0.00 37 1017.7
20260502202046 55 322 0.0 1.0 0.00 0.00 0.00 37 1017.8
20260502201549 55 346 0.0 1.0 0.00 0.00 0.00 35 1017.8
20260502201044 56 344 0.0 0.0 0.00 0.00 0.00 39 1017.9
20260502200544 55 349 0.0 0.0 0.00 0.00 0.00 36 1017.9
20260502200059 55 10 0.0 0.0 0.00 0.00 0.00 35 1017.9
20260502195541 55 347 0.0 0.0 0.00 0.00 0.00 38 1018.0
20260502195041 54 347 0.0 0.0 0.00 0.00 0.00 38 1018.1
20260502194543 54 344 0.0 0.0 0.00 0.00 0.00 37 1018.2
20260502194041 54 47 0.0 0.0 0.00 0.00 0.00 37 1018.2
20260502193542 54 40 0.0 1.0 0.00 0.00 0.00 38 1018.3
20260502193044 53 40 0.0 1.0 0.00 0.00 0.00 39 1018.3
20260502192541 53 355 0.0 0.0 0.00 0.00 0.00 38 1018.4
20260502192041 53 13 0.0 0.0 0.00 0.00 0.00 37 1018.4
20260502191545 53 345 0.0 0.0 0.00 0.00 0.00 38 1018.4
20260502191043 53 345 0.0 0.0 0.00 0.00 0.00 38 1018.4
20260502190540 53 345 0.0 0.0 0.00 0.00 0.00 37 1018.4
20260502190047 53 304 0.0 0.0 0.00 0.00 0.00 37 1018.4
20260502185539 54 293 0.0 0.0 0.00 0.00 0.00 36 1018.5
20260502185039 54 348 0.0 1.0 0.00 0.00 0.00 37 1018.5